Regional Weather Roundup
Issued by NWS Bismarck, ND

Home | Current Version | Previous Version | Text Only | Print | Product List | Glossary On
Versions: 1 2 3 4 5 6 7 8 9 10 11 12 13 14 15 16 17 18 19 20 21 22 23 24 25 26 27 28 29 30 31 32 33 34 35 36 37 38 39 40 41 42 43 44 45 46 47 48 49 50
000
ASUS43 KBIS 300710
RWRBIS

NWR BROADCAST TEXT
NATIONAL WEATHER SERVICE BISMARCK ND
200 AM CDT SAT JUL 30 2016

NOTE: "FAIR" INDICATES FEW OR NO CLOUDS BELOW 12,000 FEET WITH NO
SIGNIFICANT WEATHER AND/OR OBSTRUCTIONS TO VISIBILITY.


CITY           SKY/WX    TMP DP  RH WIND       PRES   REMARKS
WILLISTON      CLEAR     64  57  78 E3        29.94F
MINOT          PTCLDY    67  61  81 SE5       29.94F
MINOT AFB      MOCLDY    58  56  92 S5        29.93F
BISMARCK       RAIN      66  62  87 SE7       29.95F FOG
DICKINSON      CLEAR     58  56  93 S7        29.93F
GARRISON         N/A     67  65  93 E5        29.95F
HETTINGER ARPT MOCLDY    63  57  81 SE5       29.97F
JAMESTOWN      PTCLDY    62  60  93 SE3       29.98F
CARRINGTON     FAIR      64  63  94 S10       29.99F
HAZEN          CLOUDY    66  63  88 CALM      29.97F
LINTON         FAIR      63  61  94 S14       29.98F
MANDAN         CLOUDY    66  61  82 E6        29.96F
OAKES            N/A    N/A N/A N/A MISG        N/A
STANLEY        FAIR      57  57 100 CALM      29.99F
WATFORD CITY     N/A    N/A N/A N/A MISG        N/A
$$

CITY           SKY/WX    TMP DP  RH WIND       PRES   REMARKS
GRAND FORKS    CLEAR     64  57  78 SE6       29.97F
GRAND FORKS AF CLEAR     62  56  81 S6        29.97F
DEVILS LAKE    PTCLDY    67  62  84 SE7       29.97F
FARGO          CLOUDY    71  61  70 S8        29.99F
CAVALIER       FAIR      59  57  94 CALM      29.96F
GRAFTON        FAIR      59  59 100 SE5       29.98F
GWINNER        FAIR      64  61  88 S6        30.01S
LANGDON        FAIR      61  61 100 SE7       29.98F
ROLLA          FAIR      57  57 100 SW5       29.98F
$$

CITY           SKY/WX    TMP DP  RH WIND       PRES   REMARKS
ABERDEEN       CLOUDY    66  58  75 SE6       30.01R
MOBRIDGE       MOCLDY    68  57  68 SE6       29.95S
BUFFALO          N/A     67  56  67 S3        29.91F
RAPID CITY     CLEAR     56  53  90 E3        29.99F
GLASGOW        CLEAR     62  54  74 E8        29.92F
SIDNEY         CLEAR     58  46  64 NW3       29.94S
WOLF POINT     CLEAR     62  55  77 E3        29.93F
GLENDIVE       CLEAR     65  51  60 NE3       29.96S
MILES CITY     CLEAR     67  54  63 NE5       29.94F
BAKER          CLEAR     60  56  86 S3        29.98F
$$

CITY           SKY/WX    TMP DP  RH WIND       PRES   REMARKS
BILLINGS       CLEAR     71  49  45 N3        29.96F
GREAT FALLS    CLEAR     65  48  54 SE5       29.90F
REGINA         PTCLDY    59  57  94 E7        29.90F
ESTEVAN        CLEAR     59  55  88 S5        29.93F
$$




USA.gov is the U.S. government's official web portal to all federal, state and local government web resources and services.